Location: ??????
(55.7522°N, 37.6156°E)
Time: 17:36:14
(UTC+00:00)

Okean 2 - Pass Details

Date: 14 June 2025
Orbit: 522 x 533 km, 82.5° (Epoch: 12 July)

Event Time Altitude Azimuth Distance (km) Brightness Sun altitude
Exits shadow 20:15:11 10° 188° (S) 1,751 5.3 -9.4°
Maximum altitude 20:19:02 83° 103° (ESE) 542 3.2 -9.5°
Drops below altitude 10° 20:22:58 10° 13° (NNE) 1,787 7.0 -9.7°
Sets 20:25:07 0° 13° (NNE) 2,680 8.0 -9.7°
